{"data":{"norad_id":58127,"intl_designator":"2023-162K","name":"STARLINK-30790","alt_names":[],"object_type":"PAYLOAD","status":"ACTIVE","operator":null,"country":"US","launch_date":"2023-10-22","launch_site_code":"AFETR","launch_vehicle":null,"mission":null,"orbit_class":"UNKNOWN","rcs_meters":null,"size_class":null,"mass_kg":null,"dimensions":null,"purposes":["comms"],"wikipedia_slug":null,"has_3d_model":false,"image_url":null,"decayed_at":null,"tle_current":{"epoch":"2026-05-25T02:45:54.230400Z","epoch_age_seconds":75650,"freshness":"FRESH","line1":"1 58127U 23162K   26145.11521100  .00028212  00000+0  13607-2 0  9999","line2":"2 58127  42.9991  63.6267 0015952 178.1506 181.9403 15.18083700143961","mean_motion":15.180837,"eccentricity":0.0015952,"inclination_deg":42.9991,"raan_deg":63.6267,"arg_perigee_deg":178.1506,"mean_anomaly_deg":181.9403,"bstar":0.0013607,"rev_number":14396,"period_min":94.856429852978,"perigee_km":500.64200121481,"apogee_km":522.6231220242,"semimajor_km":6889.7695616195,"source":"CELESTRAK","updated_at":"2026-05-25T13:38:18.532501Z"}}}